Regional Weather Roundup
Issued by NWS

Home | Current Version | Previous Version | Text Only | Print | Product List | Glossary Off
Versions: 1 2 3 4 5 6 7 8 9 10 11 12 13 14 15 16 17 18 19 20 21 22 23 24 25 26 27 28 29 30 31 32 33 34 35 36 37 38 39 40 41 42 43 44 45 46 47 48 49 50

000
ASUS43 KBIS 172310
RWRND

NORTH DAKOTA REGIONAL WEATHER ROUNDUP
NATIONAL WEATHER SERVICE BISMARCK ND
600 PM CDT THU APR 17 2014

NOTE: "FAIR" INDICATES FEW OR NO CLOUDS BELOW 12,000 FEET WITH NO
SIGNIFICANT WEATHER AND/OR OBSTRUCTIONS TO VISIBILITY.


NDZ001>003-009>011-017-180000-
NORTHWEST NORTH DAKOTA

CITY           SKY/WX    TMP DP  RH WIND       PRES   REMARKS
WILLISTON      CLOUDY    45  27  49 SE17G24   30.04F
MINOT          CLOUDY    42  17  36 E12       30.15F
MINOT AFB      CLOUDY    41  19  41 SE12      30.15F
$$

NDZ018>021-031>035-040>046-180000-
SOUTHWEST NORTH DAKOTA

CITY           SKY/WX    TMP DP  RH WIND       PRES   REMARKS
BISMARCK       CLOUDY    45  20  36 S13       30.16F
DICKINSON      PTSUNNY   43  27  53 SE21      30.03F
GARRISON         N/A     43  21  41 S15       30.12F
HETTINGER ARPT MOSUNNY   46  26  45 S13G24    30.05F
$$

NDZ004>008-012>016-024-026-027-054-180000-
NORTHEAST NORTH DAKOTA

CITY           SKY/WX    TMP DP  RH WIND       PRES   REMARKS
GRAND FORKS    MOSUNNY   41  13  31 NE7       30.30S
GRND FRKS AFB  MOSUNNY   40  10  29 N8        30.30S
DEVILS LAKE    CLOUDY    39  10  30 SE8       30.24S
$$

NDZ022-023-025-028>030-036>039-047>053-180000-
SOUTHEAST NORTH DAKOTA

CITY           SKY/WX    TMP DP  RH WIND       PRES   REMARKS
FARGO          SUNNY     44  11  26 CALM      30.27F
JAMESTOWN      PTSUNNY   43  13  29 VRB3      30.21F
$$




USA.gov is the U.S. government's official web portal to all federal, state and local government web resources and services.